When you browse on this site, cookies collect data to enhance your experience and personalize the content and advertising you see.
Visit our Privacy Policy to learn more. By continuing to use the site, you agree to this use of cookies and data.
  • In Hungary
  • List of Countries
  • For 7 days
  • Water Temperature
  • Weather Map
  • News
  • Weather Widgets
  • user-avatar
    Login

    Hourly Weather Paczkow

    Today, 8 December, Sunday

    Time Temperature Precipitation Wind Pressure Humidity
    00:00 +6°C° 0 mm 5 mps 747 mmHg 81%
    01:00 +6°C° 0 mm 5 mps 747 mmHg 80%
    02:00 +5°C° 0 mm 5 mps 746 mmHg 81%
    03:00 +5°C° 0 mm 4 mps 746 mmHg 82%
    04:00 +4°C° 0 mm 4 mps 746 mmHg 83%
    05:00 +4°C° 0 mm 4 mps 746 mmHg 83%
    06:00 +3°C° 0 mm 5 mps 746 mmHg 84%
    07:00 +3°C° 0 mm 5 mps 746 mmHg 84%
    08:00 +3°C° 0 mm 5 mps 746 mmHg 81%
    09:00 +4°C° 0 mm 6 mps 745 mmHg 77%
    10:00 +5°C° 0 mm 7 mps 744 mmHg 74%
    11:00 +5°C° 0 mm 7 mps 744 mmHg 72%
    12:00 +6°C° 0 mm 7 mps 743 mmHg 70%
    13:00 +6°C° 0 mm 7 mps 742 mmHg 68%
    14:00 +6°C° 0 mm 7 mps 742 mmHg 69%
    15:00 +7°C° 0 mm 6 mps 741 mmHg 71%
    16:00 +5°C° 0 mm 6 mps 741 mmHg 72%
    17:00 +7°C° 0 mm 6 mps 741 mmHg 72%
    18:00 +6°C° 0 mm 7 mps 741 mmHg 72%
    19:00 +8°C° 0 mm 7 mps 740 mmHg 71%
    20:00 +8°C° 0.3 mm 7 mps 740 mmHg 73%
    21:00 +7°C° 0.3 mm 8 mps 740 mmHg 74%
    22:00 +7°C° 0.3 mm 8 mps 739 mmHg 75%
    23:00 +7°C° 0.1 mm 8 mps 739 mmHg 75%

    Tomorrow, 9 December, Monday

    Time Temperature Precipitation Wind Pressure Humidity
    00:00 +8°C° 0.1 mm 7 mps 739 mmHg 76%
    01:00 +8°C° 0.1 mm 7 mps 739 mmHg 76%
    02:00 +8°C° 0.5 mm 6 mps 739 mmHg 79%
    03:00 +8°C° 0.5 mm 6 mps 738 mmHg 82%
    04:00 +7°C° 0.5 mm 5 mps 738 mmHg 85%
    05:00 +7°C° 0.2 mm 5 mps 738 mmHg 84%
    06:00 +7°C° 0.2 mm 4 mps 738 mmHg 82%
    07:00 +7°C° 0.2 mm 4 mps 738 mmHg 80%
    08:00 +7°C° 0 mm 5 mps 739 mmHg 75%
    09:00 +7°C° 0 mm 5 mps 739 mmHg 71%
    10:00 +7°C° 0 mm 6 mps 739 mmHg 66%
    11:00 +7°C° 0 mm 6 mps 739 mmHg 64%
    12:00 +8°C° 0 mm 6 mps 739 mmHg 61%
    13:00 +8°C° 0 mm 6 mps 739 mmHg 59%
    14:00 +7°C° 0 mm 6 mps 738 mmHg 62%
    15:00 +6°C° 0 mm 5 mps 738 mmHg 66%
    16:00 +6°C° 0 mm 5 mps 738 mmHg 69%
    17:00 +5°C° 0 mm 5 mps 738 mmHg 72%
    18:00 +5°C° 0 mm 5 mps 738 mmHg 74%
    19:00 +4°C° 0 mm 6 mps 738 mmHg 77%
    20:00 +4°C° 0 mm 6 mps 739 mmHg 78%
    21:00 +4°C° 0 mm 6 mps 739 mmHg 78%
    22:00 +4°C° 0 mm 6 mps 740 mmHg 79%
    23:00 +4°C° 0 mm 6 mps 740 mmHg 80%

    Day after tomorrow, 10 December, Tuesday

    Time Temperature Precipitation Wind Pressure Humidity
    00:00 +4°C° 0 mm 6 mps 741 mmHg 80%
    01:00 +4°C° 0 mm 6 mps 742 mmHg 80%
    02:00 +3°C° 0.1 mm 6 mps 742 mmHg 79%
    03:00 +3°C° 0.1 mm 6 mps 743 mmHg 77%
    04:00 +3°C° 0.1 mm 6 mps 744 mmHg 75%
    05:00 +2°C° 0 mm 6 mps 745 mmHg 76%
    06:00 +1°C° 0 mm 6 mps 746 mmHg 78%
    07:00 +1°C° 0 mm 6 mps 746 mmHg 79%
    08:00 0°C° 0.1 mm 7 mps 747 mmHg 82%
    09:00 0°C° 0.1 mm 7 mps 748 mmHg 84%
    10:00 0°C° 0.1 mm 7 mps 748 mmHg 87%
    11:00 0°C° 0.4 mm 7 mps 749 mmHg 85%
    12:00 +2°C° 0.4 mm 7 mps 749 mmHg 83%
    13:00 +2°C° 0.4 mm 7 mps 749 mmHg 81%
    14:00 +2°C° 0 mm 7 mps 750 mmHg 83%
    15:00 0°C° 0 mm 7 mps 751 mmHg 86%
    16:00 0°C° 0 mm 7 mps 751 mmHg 88%
    17:00 0°C° 0 mm 7 mps 752 mmHg 84%
    18:00 +1°C° 0 mm 6 mps 752 mmHg 79%
    19:00 +1°C° 0 mm 5 mps 753 mmHg 75%
    20:00 0°C° 0 mm 5 mps 753 mmHg 75%
    21:00 0°C° 0 mm 4 mps 753 mmHg 74%
    22:00 0°C° 0 mm 3 mps 754 mmHg 74%
    23:00 -1°C° 0 mm 3 mps 754 mmHg 78%

    11 December, Wednesday

    Time Temperature Precipitation Wind Pressure Humidity
    00:00 -1°C° 0 mm 2 mps 754 mmHg 82%
    01:00 -2°C° 0 mm 2 mps 754 mmHg 86%
    02:00 -2°C° 0 mm 2 mps 753 mmHg 85%
    03:00 -2°C° 0 mm 2 mps 753 mmHg 84%
    04:00 0°C° 0 mm 1 mps 753 mmHg 83%
    05:00 -2°C° 0 mm 2 mps 752 mmHg 82%
    06:00 -2°C° 0 mm 3 mps 752 mmHg 80%
    07:00 -2°C° 0 mm 3 mps 752 mmHg 78%
    08:00 -3°C° 0 mm 4 mps 751 mmHg 75%
    09:00 -2°C° 0 mm 4 mps 751 mmHg 72%
    10:00 -1°C° 0 mm 5 mps 751 mmHg 69%
    11:00 0°C° 0 mm 5 mps 750 mmHg 65%
    12:00 0°C° 0 mm 5 mps 749 mmHg 60%
    13:00 +1°C° 0 mm 5 mps 749 mmHg 56%
    14:00 0°C° 0 mm 4 mps 748 mmHg 59%
    15:00 0°C° 0 mm 4 mps 747 mmHg 61%
    16:00 -1°C° 0 mm 4 mps 747 mmHg 64%
    17:00 -1°C° 0 mm 4 mps 746 mmHg 66%
    18:00 -2°C° 0 mm 4 mps 746 mmHg 68%
    19:00 -2°C° 0 mm 4 mps 746 mmHg 71%
    20:00 -2°C° 0 mm 4 mps 746 mmHg 72%
    21:00 -2°C° 0 mm 4 mps 745 mmHg 73%
    22:00 -2°C° 0 mm 4 mps 745 mmHg 74%
    23:00 -2°C° 0 mm 4 mps 745 mmHg 73%

    12 December, Thursday

    Time Temperature Precipitation Wind Pressure Humidity
    00:00 -1°C° 0 mm 5 mps 744 mmHg 73%
    01:00 -1°C° 0 mm 5 mps 744 mmHg 72%
    02:00 -1°C° 0.2 mm 5 mps 744 mmHg 75%
    03:00 -1°C° 0.2 mm 5 mps 744 mmHg 79%
    04:00 -1°C° 0.2 mm 5 mps 743 mmHg 82%
    05:00 -1°C° 0 mm 4 mps 744 mmHg 81%
    06:00 -1°C° 0 mm 4 mps 744 mmHg 81%
    07:00 -1°C° 0 mm 4 mps 744 mmHg 81%
    08:00 0°C° 0 mm 4 mps 744 mmHg 79%
    09:00 0°C° 0 mm 4 mps 744 mmHg 77%
    10:00 +1°C° 0 mm 5 mps 744 mmHg 75%
    11:00 +1°C° 0 mm 5 mps 744 mmHg 73%
    12:00 +2°C° 0 mm 5 mps 744 mmHg 72%
    13:00 +3°C° 0 mm 5 mps 744 mmHg 71%
    14:00 +3°C° 0 mm 4 mps 744 mmHg 74%
    15:00 +1°C° 0 mm 4 mps 744 mmHg 78%
    16:00 +1°C° 0 mm 3 mps 745 mmHg 81%
    17:00 0°C° 0 mm 3 mps 745 mmHg 82%
    18:00 0°C° 0 mm 3 mps 745 mmHg 84%
    19:00 -1°C° 0 mm 3 mps 745 mmHg 85%
    20:00 -1°C° 0 mm 3 mps 745 mmHg 85%
    21:00 -1°C° 0 mm 3 mps 744 mmHg 86%
    22:00 -1°C° 0 mm 3 mps 744 mmHg 87%
    23:00 -2°C° 0 mm 4 mps 743 mmHg 85%

    13 December, Friday

    Time Temperature Precipitation Wind Pressure Humidity
    00:00 -2°C° 0 mm 5 mps 742 mmHg 83%
    01:00 -2°C° 0 mm 5 mps 742 mmHg 82%
    02:00 -3°C° 0 mm 6 mps 740 mmHg 78%
    03:00 -2°C° 0 mm 7 mps 739 mmHg 75%
    04:00 -2°C° 0 mm 8 mps 738 mmHg 71%
    05:00 -2°C° 0 mm 8 mps 737 mmHg 69%
    06:00 -1°C° 0 mm 9 mps 735 mmHg 67%
    07:00 0°C° 0 mm 10 mps 734 mmHg 64%
    08:00 0°C° 0 mm 10 mps 733 mmHg 60%
    09:00 +1°C° 0 mm 10 mps 732 mmHg 56%
    10:00 +1°C° 0 mm 10 mps 731 mmHg 52%
    11:00 +1°C° 0.1 mm 9 mps 730 mmHg 57%
    12:00 +1°C° 0.1 mm 9 mps 730 mmHg 61%
    13:00 +1°C° 0.1 mm 9 mps 729 mmHg 66%
    14:00 +1°C° 0 mm 8 mps 729 mmHg 69%
    15:00 +2°C° 0 mm 7 mps 729 mmHg 71%
    16:00 +1°C° 0 mm 6 mps 729 mmHg 74%
    17:00 +1°C° 0.3 mm 6 mps 730 mmHg 80%
    18:00 +1°C° 0.3 mm 5 mps 730 mmHg 86%
    19:00 +1°C° 0.3 mm 5 mps 731 mmHg 91%
    20:00 +1°C° 0 mm 5 mps 731 mmHg 87%
    21:00 +1°C° 0 mm 6 mps 732 mmHg 82%
    22:00 +1°C° 0 mm 6 mps 732 mmHg 77%
    23:00 +1°C° 0 mm 6 mps 733 mmHg 76%
    Show more